Time,TemperatureF,DewpointF,PressureIn,WindDirection,WindDirectionDegrees,WindSpeedMPH,WindSpeedGustMPH,Humidity,HourlyPrecipIn,Conditions,Clouds,dailyrainin,SoftwareType,DateUTC
2013-05-20 00:01:00,68.9,65.5,30.00,ENE,68,4.6,4.6,89,0.00,CLR,CLR,0.00,WeatherDisplay:10.37,2013-05-20 04:01:00,
2013-05-20 00:02:00,68.7,65.3,30.00,ESE,112,3.6,3.6,89,0.00,CLR,CLR,0.00,WeatherDisplay:10.37,2013-05-20 04:02:00,
2013-05-20 00:04:00,68.7,65.3,30.00,ENE,68,3.5,3.5,89,0.00,CLR,CLR,0.00,WeatherDisplay:10.37,2013-05-20 04:04:00,
2013-05-20 00:09:00,68.7,65.3,30.00,ESE,112,3.5,3.5,89,0.00,CLR,CLR,0.00,WeatherDisplay:10.37,2013-05-20 04:09:00,
2013-05-20 00:14:00,68.7,65.3,30.00,SSE,158,4.6,4.6,89,0.00,CLR,CLR,0.00,WeatherDisplay:10.37,2013-05-20 04:14:00,
2013-05-20 00:19:00,68.7,65.3,30.00,SSE,158,4.6,4.6,89,0.00,CLR,CLR,0.00,WeatherDisplay:10.37,2013-05-20 04:19:00,
2013-05-20 00:25:00,68.5,65.2,30.00,East,90,3.8,3.8,89,0.00,CLR,CLR,0.00,WeatherDisplay:10.37,2013-05-20 04:25:00,
2013-05-20 00:30:00,68.5,65.2,30.00,ESE,112,4.6,4.6,89,0.00,CLR,CLR,0.00,WeatherDisplay:10.37,2013-05-20 04:30:00,
2013-05-20 00:35:00,68.5,65.2,30.00,ESE,112,5.8,5.8,89,0.00,CLR,CLR,0.00,WeatherDisplay:10.37,2013-05-20 04:35:00,
2013-05-20 00:41:00,68.5,65.5,30.00,SSE,158,6.9,6.9,90,0.00,CLR,CLR,0.00,WeatherDisplay:10.37,2013-05-20 04:41:00,
2013-05-20 00:46:00,68.4,65.3,30.00,ESE,112,4.6,4.6,90,0.00,CLR,CLR,0.00,WeatherDisplay:10.37,2013-05-20 04:46:00,
2013-05-20 00:51:00,68.4,65.3,30.00,ESE,112,3.5,3.5,90,0.00,CLR,CLR,0.00,WeatherDisplay:10.37,2013-05-20 04:51:00,
2013-05-20 00:56:00,68.2,65.1,30.00,ESE,112,4.6,4.6,90,0.00,CLR,CLR,0.00,WeatherDisplay:10.37,2013-05-20 04:56:00,
2013-05-20 01:02:00,68.0,65.0,30.00,ESE,112,2.3,2.3,90,0.00,CLR,CLR,0.00,WeatherDisplay:10.37,2013-05-20 05:02:00,
2013-05-20 01:07:00,68.0,65.0,30.00,SSE,158,4.0,4.0,90,0.00,CLR,CLR,0.00,WeatherDisplay:10.37,2013-05-20 05:07:00,
2013-05-20 01:12:00,67.8,65.1,30.00,SSE,158,3.5,3.5,91,0.00,CLR,CLR,0.00,WeatherDisplay:10.37,2013-05-20 05:12:00,
2013-05-20 01:17:00,67.6,64.9,30.00,ESE,112,2.3,2.3,91,0.00,CLR,CLR,0.00,WeatherDisplay:10.37,2013-05-20 05:17:00,
2013-05-20 01:22:00,67.6,64.9,30.00,SE,135,2.3,2.3,91,0.00,CLR,CLR,0.00,WeatherDisplay:10.37,2013-05-20 05:22:00,
2013-05-20 01:28:00,67.5,64.7,30.00,ESE,112,1.2,1.4,91,0.00,CLR,CLR,0.00,WeatherDisplay:10.37,2013-05-20 05:28:00,
2013-05-20 01:33:00,67.6,65.2,30.00,SSE,158,2.6,2.6,92,0.00,CLR,CLR,0.00,WeatherDisplay:10.37,2013-05-20 05:33:00,
2013-05-20 01:38:00,67.8,65.4,30.00,East,90,3.8,3.8,92,0.00,CLR,CLR,0.00,WeatherDisplay:10.37,2013-05-20 05:38:00,
2013-05-20 01:43:00,67.8,65.4,30.00,ESE,112,5.8,5.8,92,0.00,CLR,CLR,0.00,WeatherDisplay:10.37,2013-05-20 05:43:00,
2013-05-20 01:48:00,67.8,65.4,30.00,ESE,112,4.6,4.6,92,0.00,CLR,CLR,0.00,WeatherDisplay:10.37,2013-05-20 05:48:00,
2013-05-20 01:54:00,67.6,65.2,30.00,SSW,202,2.3,2.3,92,0.00,CLR,CLR,0.00,WeatherDisplay:10.37,2013-05-20 05:54:00,
2013-05-20 01:59:00,67.5,65.1,30.00,South,180,1.4,0.0,92,0.00,CLR,CLR,0.00,WeatherDisplay:10.37,2013-05-20 05:59:00,
2013-05-20 02:04:00,67.5,65.1,30.00,SSE,158,3.5,3.5,92,0.00,CLR,CLR,0.00,WeatherDisplay:10.37,2013-05-20 06:04:00,
2013-05-20 02:09:00,67.5,65.4,30.00,ESE,112,5.8,5.8,93,0.00,CLR,CLR,0.00,WeatherDisplay:10.37,2013-05-20 06:09:00,
2013-05-20 02:14:00,67.3,65.2,30.00,ESE,112,4.6,4.6,93,0.00,CLR,CLR,0.00,WeatherDisplay:10.37,2013-05-20 06:14:00,
2013-05-20 02:19:00,67.3,65.2,30.00,SSW,202,3.5,3.5,93,0.00,CLR,CLR,0.00,WeatherDisplay:10.37,2013-05-20 06:19:00,
2013-05-20 02:24:00,67.3,65.2,30.00,SE,135,2.4,2.4,93,0.00,CLR,CLR,0.00,WeatherDisplay:10.37,2013-05-20 06:24:00,
2013-05-20 02:29:00,67.1,65.3,30.00,SSE,158,3.5,3.5,94,0.00,CLR,CLR,0.00,WeatherDisplay:10.37,2013-05-20 06:29:00,
2013-05-20 02:34:00,66.9,65.1,30.00,East,90,2.0,2.0,94,0.00,CLR,CLR,0.00,WeatherDisplay:10.37,2013-05-20 06:34:00,
2013-05-20 02:39:00,66.9,65.1,30.00,ESE,112,2.4,2.4,94,0.00,CLR,CLR,0.00,WeatherDisplay:10.37,2013-05-20 06:39:00,
2013-05-20 02:44:00,66.7,65.0,30.00,ESE,112,5.4,5.4,94,0.00,CLR,CLR,0.00,WeatherDisplay:10.37,2013-05-20 06:44:00,
2013-05-20 02:49:00,66.7,65.0,30.00,ESE,112,1.4,0.0,94,0.00,CLR,CLR,0.00,WeatherDisplay:10.37,2013-05-20 06:49:00,
2013-05-20 02:55:00,66.6,64.8,30.00,SSE,158,2.4,2.4,94,0.00,CLR,CLR,0.00,WeatherDisplay:10.37,2013-05-20 06:55:00,
2013-05-20 03:00:00,66.2,64.4,30.00,ENE,68,2.3,2.3,94,0.00,CLR,CLR,0.00,WeatherDisplay:10.37,2013-05-20 07:00:00,
2013-05-20 03:05:00,66.2,64.4,30.00,South,180,0.0,0.0,94,0.00,CLR,CLR,0.00,WeatherDisplay:10.37,2013-05-20 07:05:00,
2013-05-20 03:10:00,66.0,64.5,30.00,ESE,112,2.3,2.3,95,0.00,CLR,CLR,0.00,WeatherDisplay:10.37,2013-05-20 07:10:00,
2013-05-20 03:15:00,66.0,64.5,30.00,SSE,158,2.0,0.0,95,0.00,CLR,CLR,0.00,WeatherDisplay:10.37,2013-05-20 07:15:00,
2013-05-20 03:21:00,65.8,64.4,30.00,SSE,158,1.2,0.0,95,0.00,CLR,CLR,0.00,WeatherDisplay:10.37,2013-05-20 07:21:00,
2013-05-20 03:26:00,65.8,64.4,30.00,SSW,202,1.2,0.0,95,0.00,CLR,CLR,0.00,WeatherDisplay:10.37,2013-05-20 07:26:00,
2013-05-20 03:31:00,65.7,64.2,30.00,South,180,1.2,0.0,95,0.00,CLR,CLR,0.00,WeatherDisplay:10.37,2013-05-20 07:31:00,
2013-05-20 03:36:00,65.8,64.7,30.00,SSE,158,2.3,2.3,96,0.00,CLR,CLR,0.00,WeatherDisplay:10.37,2013-05-20 07:36:00,
2013-05-20 03:41:00,65.7,64.2,30.00,SSE,158,0.0,0.0,95,0.00,CLR,CLR,0.00,WeatherDisplay:10.37,2013-05-20 07:41:00,
2013-05-20 03:47:00,65.7,64.5,30.00,ESE,112,1.4,0.0,96,0.00,CLR,CLR,0.00,WeatherDisplay:10.37,2013-05-20 07:47:00,
2013-05-20 03:52:00,65.5,64.3,30.00,ESE,112,2.3,2.3,96,0.00,CLR,CLR,0.00,WeatherDisplay:10.37,2013-05-20 07:52:00,
2013-05-20 03:57:00,65.1,64.0,30.00,ESE,112,0.0,0.0,96,0.00,CLR,CLR,0.00,WeatherDisplay:10.37,2013-05-20 07:57:00,
2013-05-20 04:02:00,64.9,63.8,30.00,ENE,68,0.0,0.0,96,0.00,CLR,CLR,0.00,WeatherDisplay:10.37,2013-05-20 08:02:00,
2013-05-20 04:07:00,64.8,63.6,30.00,East,90,0.0,0.0,96,0.00,CLR,CLR,0.00,WeatherDisplay:10.37,2013-05-20 08:07:00,
2013-05-20 04:12:00,64.4,63.2,30.00,ENE,68,1.2,0.0,96,0.00,CLR,CLR,0.00,WeatherDisplay:10.37,2013-05-20 08:12:00,
2013-05-20 04:18:00,64.0,62.9,30.00,ENE,68,0.0,0.0,96,0.00,CLR,CLR,0.00,WeatherDisplay:10.37,2013-05-20 08:18:00,
2013-05-20 04:23:00,64.0,62.9,30.00,ENE,68,2.3,2.3,96,0.00,CLR,CLR,0.00,WeatherDisplay:10.37,2013-05-20 08:23:00,
2013-05-20 04:28:00,63.9,63.0,30.00,ENE,68,2.3,2.3,97,0.00,CLR,CLR,0.00,WeatherDisplay:10.37,2013-05-20 08:28:00,
2013-05-20 04:33:00,63.7,62.5,30.00,ENE,68,2.4,2.4,96,0.00,CLR,CLR,0.00,WeatherDisplay:10.37,2013-05-20 08:33:00,
2013-05-20 04:38:00,63.7,62.8,30.00,East,90,2.6,2.6,97,0.00,CLR,CLR,0.00,WeatherDisplay:10.37,2013-05-20 08:38:00,
2013-05-20 04:43:00,63.5,62.6,30.00,ENE,68,0.0,0.0,97,0.00,CLR,CLR,0.00,WeatherDisplay:10.37,2013-05-20 08:43:00,
2013-05-20 04:49:00,63.3,62.5,30.00,ENE,68,2.3,2.3,97,0.00,CLR,CLR,0.00,WeatherDisplay:10.37,2013-05-20 08:49:00,
2013-05-20 04:54:00,63.3,62.5,30.00,ENE,68,2.4,2.4,97,0.00,CLR,CLR,0.00,WeatherDisplay:10.37,2013-05-20 08:54:00,
2013-05-20 04:59:00,63.3,62.5,30.00,ESE,112,2.3,2.6,97,0.00,CLR,CLR,0.00,WeatherDisplay:10.37,2013-05-20 08:59:00,
2013-05-20 05:04:00,63.1,62.3,30.00,NNE,22,0.0,0.0,97,0.00,CLR,CLR,0.00,WeatherDisplay:10.37,2013-05-20 09:04:00,
2013-05-20 05:09:00,63.1,62.3,30.00,ENE,68,0.0,0.0,97,0.00,CLR,CLR,0.00,WeatherDisplay:10.37,2013-05-20 09:09:00,
2013-05-20 05:14:00,63.3,62.5,30.00,ENE,68,1.2,1.2,97,0.00,CLR,CLR,0.00,WeatherDisplay:10.37,2013-05-20 09:14:00,
2013-05-20 05:19:00,63.1,62.3,30.00,ENE,68,2.3,2.3,97,0.00,CLR,CLR,0.00,WeatherDisplay:10.37,2013-05-20 09:19:00,
2013-05-20 05:25:00,63.3,62.5,30.00,ENE,68,2.4,2.4,97,0.00,CLR,CLR,0.00,WeatherDisplay:10.37,2013-05-20 09:25:00,
2013-05-20 05:30:00,63.3,62.5,30.00,ESE,112,2.3,2.4,97,0.00,CLR,CLR,0.00,WeatherDisplay:10.37,2013-05-20 09:30:00,
2013-05-20 05:35:00,63.3,62.5,30.00,East,90,2.3,2.3,97,0.00,CLR,CLR,0.00,WeatherDisplay:10.37,2013-05-20 09:35:00,
2013-05-20 05:40:00,63.3,62.5,30.00,East,90,2.9,2.9,97,0.00,CLR,CLR,0.00,WeatherDisplay:10.37,2013-05-20 09:40:00,
2013-05-20 05:45:00,63.3,62.7,30.00,ENE,68,2.3,2.3,98,0.00,CLR,CLR,0.00,WeatherDisplay:10.37,2013-05-20 09:45:00,
2013-05-20 05:51:00,63.5,62.9,30.00,East,90,2.3,0.0,98,0.00,CLR,CLR,0.00,WeatherDisplay:10.37,2013-05-20 09:51:00,
2013-05-20 05:56:00,63.5,62.9,30.00,ENE,68,3.5,3.5,98,0.00,CLR,CLR,0.00,WeatherDisplay:10.37,2013-05-20 09:56:00,
2013-05-20 06:01:00,63.9,63.3,30.00,ESE,112,4.6,4.6,98,0.00,CLR,CLR,0.00,WeatherDisplay:10.37,2013-05-20 10:01:00,
2013-05-20 06:06:00,64.2,63.6,30.00,ENE,68,2.3,2.3,98,0.00,CLR,CLR,0.00,WeatherDisplay:10.37,2013-05-20 10:06:00,
2013-05-20 06:11:00,64.2,63.6,30.00,ENE,68,2.3,2.3,98,0.00,CLR,CLR,0.00,WeatherDisplay:10.37,2013-05-20 10:11:00,
2013-05-20 06:16:00,64.2,63.6,30.00,ENE,68,2.0,0.0,98,0.00,CLR,CLR,0.00,WeatherDisplay:10.37,2013-05-20 10:16:00,
2013-05-20 06:22:00,64.2,63.6,30.00,ENE,68,2.3,2.3,98,0.00,CLR,CLR,0.00,WeatherDisplay:10.37,2013-05-20 10:22:00,
2013-05-20 06:27:00,64.4,63.5,30.00,ENE,68,2.4,2.4,97,0.00,CLR,CLR,0.00,WeatherDisplay:10.37,2013-05-20 10:27:00,
2013-05-20 06:32:00,64.4,63.5,30.00,ESE,112,2.6,2.6,97,0.00,CLR,CLR,0.00,WeatherDisplay:10.37,2013-05-20 10:32:00,
2013-05-20 06:37:00,64.2,63.6,30.00,ESE,112,2.3,2.3,98,0.00,CLR,CLR,0.00,WeatherDisplay:10.37,2013-05-20 10:37:00,
2013-05-20 06:43:00,64.2,63.6,30.00,ENE,68,2.3,2.3,98,0.00,CLR,CLR,0.00,WeatherDisplay:10.37,2013-05-20 10:43:00,
2013-05-20 06:48:00,64.4,63.5,30.00,ESE,112,1.2,1.2,97,0.00,CLR,CLR,0.00,WeatherDisplay:10.37,2013-05-20 10:48:00,
2013-05-20 06:53:00,64.6,63.7,30.00,ESE,112,1.4,1.4,97,0.00,CLR,CLR,0.00,WeatherDisplay:10.37,2013-05-20 10:53:00,
2013-05-20 06:58:00,64.8,63.9,30.00,ENE,68,2.3,2.4,97,0.00,CLR,CLR,0.00,WeatherDisplay:10.37,2013-05-20 10:58:00,
2013-05-20 07:03:00,64.9,64.1,30.00,ESE,112,2.3,2.3,97,0.00,CLR,CLR,0.00,WeatherDisplay:10.37,2013-05-20 11:03:00,
2013-05-20 07:09:00,65.1,64.2,30.00,ENE,68,3.5,3.5,97,0.00,CLR,CLR,0.00,WeatherDisplay:10.37,2013-05-20 11:09:00,
2013-05-20 07:14:00,65.5,64.6,30.00,East,90,4.6,4.6,97,0.00,CLR,CLR,0.00,WeatherDisplay:10.37,2013-05-20 11:14:00,
2013-05-20 07:19:00,65.7,64.8,30.00,SSW,202,2.3,2.3,97,0.00,CLR,CLR,0.00,WeatherDisplay:10.37,2013-05-20 11:19:00,
2013-05-20 07:25:00,65.7,64.8,30.03,ENE,68,4.6,4.6,97,0.00,CLR,CLR,0.00,WeatherDisplay:10.37,2013-05-20 11:25:00,
2013-05-20 07:30:00,65.8,65.0,30.03,ESE,112,4.6,4.6,97,0.00,CLR,CLR,0.00,WeatherDisplay:10.37,2013-05-20 11:30:00,
2013-05-20 07:35:00,66.0,65.1,30.03,SSE,158,4.6,4.6,97,0.00,CLR,CLR,0.00,WeatherDisplay:10.37,2013-05-20 11:35:00,
2013-05-20 07:40:00,66.2,65.3,30.00,ESE,112,4.6,4.6,97,0.00,CLR,CLR,0.00,WeatherDisplay:10.37,2013-05-20 11:40:00,
2013-05-20 07:46:00,66.4,65.5,30.00,SE,135,4.6,4.6,97,0.00,CLR,CLR,0.00,WeatherDisplay:10.37,2013-05-20 11:46:00,
2013-05-20 07:51:00,66.6,65.7,30.00,ESE,112,2.6,2.6,97,0.00,CLR,CLR,0.00,WeatherDisplay:10.37,2013-05-20 11:51:00,
2013-05-20 07:56:00,66.9,66.0,30.00,SSW,202,2.4,2.4,97,0.00,CLR,CLR,0.00,WeatherDisplay:10.37,2013-05-20 11:56:00,
2013-05-20 08:01:00,67.3,66.4,30.00,SSE,158,3.5,3.5,97,0.00,CLR,CLR,0.00,WeatherDisplay:10.37,2013-05-20 12:01:00,
2013-05-20 08:07:00,67.5,66.6,30.03,ESE,112,3.5,3.5,97,0.00,CLR,CLR,0.00,WeatherDisplay:10.37,2013-05-20 12:07:00,
2013-05-20 08:12:00,68.0,66.8,30.03,ESE,112,4.6,4.6,96,0.00,CLR,CLR,0.00,WeatherDisplay:10.37,2013-05-20 12:12:00,
2013-05-20 08:17:00,68.0,66.8,30.03,ESE,112,6.2,6.2,96,0.00,CLR,CLR,0.00,WeatherDisplay:10.37,2013-05-20 12:17:00,
2013-05-20 08:22:00,68.4,66.9,30.03,ESE,112,5.8,5.8,95,0.00,CLR,CLR,0.00,WeatherDisplay:10.37,2013-05-20 12:22:00,
2013-05-20 08:27:00,68.4,66.9,30.03,ESE,112,4.6,4.6,95,0.00,CLR,CLR,0.00,WeatherDisplay:10.37,2013-05-20 12:27:00,
2013-05-20 08:32:00,68.2,66.7,30.03,ESE,112,5.8,5.8,95,0.00,CLR,CLR,0.00,WeatherDisplay:10.37,2013-05-20 12:32:00,
2013-05-20 08:37:00,68.5,67.1,30.03,SSE,158,3.8,3.8,95,0.00,CLR,CLR,0.00,WeatherDisplay:10.37,2013-05-20 12:37:00,
2013-05-20 08:43:00,68.5,67.1,30.03,ESE,112,5.8,5.8,95,0.00,CLR,CLR,0.00,WeatherDisplay:10.37,2013-05-20 12:43:00,
2013-05-20 08:48:00,68.7,67.2,30.03,ESE,112,5.8,5.8,95,0.00,CLR,CLR,0.00,WeatherDisplay:10.37,2013-05-20 12:48:00,
2013-05-20 08:53:00,68.9,67.4,30.03,ENE,68,3.5,3.5,95,0.00,CLR,CLR,0.00,WeatherDisplay:10.37,2013-05-20 12:53:00,
2013-05-20 08:58:00,69.4,67.6,30.03,SSW,202,3.5,3.5,94,0.00,CLR,CLR,0.00,WeatherDisplay:10.37,2013-05-20 12:58:00,
2013-05-20 09:04:00,69.1,67.3,30.03,SSE,158,6.9,6.9,94,0.00,CLR,CLR,0.00,WeatherDisplay:10.37,2013-05-20 13:04:00,
2013-05-20 09:09:00,69.4,67.6,30.03,SSE,158,4.6,4.6,94,0.00,CLR,CLR,0.00,WeatherDisplay:10.37,2013-05-20 13:09:00,
2013-05-20 09:14:00,69.6,67.8,30.03,SSE,158,5.8,5.8,94,0.00,CLR,CLR,0.00,WeatherDisplay:10.37,2013-05-20 13:14:00,
2013-05-20 09:19:00,69.4,67.3,30.03,SSE,158,5.8,5.8,93,0.00,CLR,CLR,0.00,WeatherDisplay:10.37,2013-05-20 13:19:00,
2013-05-20 09:24:00,69.8,67.7,30.06,SSE,158,5.8,5.8,93,0.00,CLR,CLR,0.00,WeatherDisplay:10.37,2013-05-20 13:24:00,
2013-05-20 09:29:00,70.0,67.9,30.06,SSW,202,3.5,3.5,93,0.00,CLR,CLR,0.00,WeatherDisplay:10.37,2013-05-20 13:29:00,
2013-05-20 09:35:00,70.2,68.0,30.06,SSE,158,3.5,3.5,93,0.00,CLR,CLR,0.00,WeatherDisplay:10.37,2013-05-20 13:35:00,
2013-05-20 09:40:00,70.0,67.9,30.03,SSW,202,3.5,3.5,93,0.00,CLR,CLR,0.00,WeatherDisplay:10.37,2013-05-20 13:40:00,
2013-05-20 09:45:00,69.6,67.8,30.03,SSE,158,3.5,3.5,94,0.00,CLR,CLR,0.00,WeatherDisplay:10.37,2013-05-20 13:45:00,
2013-05-20 09:50:00,69.1,67.3,30.03,SSE,158,5.8,5.8,94,0.00,CLR,CLR,0.00,WeatherDisplay:10.37,2013-05-20 13:50:00,
2013-05-20 09:56:00,68.9,67.4,30.03,SSE,158,4.6,4.6,95,0.00,CLR,CLR,0.00,WeatherDisplay:10.37,2013-05-20 13:56:00,
2013-05-20 10:01:00,68.9,67.4,30.03,WSW,248,4.6,4.6,95,0.00,CLR,CLR,0.00,WeatherDisplay:10.37,2013-05-20 14:01:00,
2013-05-20 10:06:00,68.9,67.4,30.03,SSW,202,4.6,4.6,95,0.00,CLR,CLR,0.00,WeatherDisplay:10.37,2013-05-20 14:06:00,
2013-05-20 10:11:00,68.9,67.7,30.03,ESE,112,5.6,5.6,96,0.00,CLR,CLR,0.00,WeatherDisplay:10.37,2013-05-20 14:11:00,
2013-05-20 10:16:00,68.7,67.5,30.03,SSW,202,3.5,3.5,96,0.00,CLR,CLR,0.00,WeatherDisplay:10.37,2013-05-20 14:16:00,
2013-05-20 10:21:00,68.7,67.5,30.06,WSW,248,2.3,2.4,96,0.00,CLR,CLR,0.00,WeatherDisplay:10.37,2013-05-20 14:21:00,
2013-05-20 10:27:00,69.1,67.9,30.06,SSE,158,5.4,5.4,96,0.00,CLR,CLR,0.00,WeatherDisplay:10.37,2013-05-20 14:27:00,
2013-05-20 10:32:00,69.4,68.2,30.06,SSE,158,4.6,4.6,96,0.00,CLR,CLR,0.00,WeatherDisplay:10.37,2013-05-20 14:32:00,
2013-05-20 10:37:00,69.4,67.9,30.06,SSW,202,4.6,4.6,95,0.00,CLR,CLR,0.00,WeatherDisplay:10.37,2013-05-20 14:37:00,
2013-05-20 10:42:00,69.6,68.1,30.06,SSE,158,2.3,2.3,95,0.00,CLR,CLR,0.00,WeatherDisplay:10.37,2013-05-20 14:42:00,
2013-05-20 10:47:00,70.0,68.5,30.06,WSW,248,3.5,3.5,95,0.00,CLR,CLR,0.00,WeatherDisplay:10.37,2013-05-20 14:47:00,
2013-05-20 10:52:00,70.5,68.7,30.06,South,180,5.8,5.8,94,0.00,CLR,CLR,0.00,WeatherDisplay:10.37,2013-05-20 14:52:00,
2013-05-20 10:57:00,71.6,69.5,30.06,SSE,158,3.5,3.5,93,0.00,CLR,CLR,0.00,WeatherDisplay:10.37,2013-05-20 14:57:00,
2013-05-20 11:02:00,71.8,69.3,30.06,South,180,5.8,5.8,92,0.00,CLR,CLR,0.00,WeatherDisplay:10.37,2013-05-20 15:02:00,
2013-05-20 11:08:00,72.0,69.2,30.03,SSW,202,8.1,8.1,91,0.00,CLR,CLR,0.00,WeatherDisplay:10.37,2013-05-20 15:08:00,
2013-05-20 11:13:00,71.8,69.0,30.03,SSE,158,5.8,5.8,91,0.00,CLR,CLR,0.00,WeatherDisplay:10.37,2013-05-20 15:13:00,
2013-05-20 11:18:00,71.4,68.7,30.03,NNE,22,5.8,5.8,91,0.00,CLR,CLR,0.00,WeatherDisplay:10.37,2013-05-20 15:18:00,
2013-05-20 11:23:00,71.4,69.0,30.06,SSW,202,3.5,3.5,92,0.00,CLR,CLR,0.00,WeatherDisplay:10.37,2013-05-20 15:23:00,
2013-05-20 11:29:00,71.6,68.8,30.06,SSW,202,3.6,3.6,91,0.00,CLR,CLR,0.00,WeatherDisplay:10.37,2013-05-20 15:29:00,
2013-05-20 11:34:00,71.6,68.8,30.06,WNW,292,6.9,6.9,91,0.00,CLR,CLR,0.00,WeatherDisplay:10.37,2013-05-20 15:34:00,
2013-05-20 11:39:00,71.8,68.7,30.06,WSW,248,5.8,5.8,90,0.00,CLR,CLR,0.00,WeatherDisplay:10.37,2013-05-20 15:39:00,
2013-05-20 11:44:00,72.1,69.0,30.06,WNW,292,4.6,4.6,90,0.00,CLR,CLR,0.00,WeatherDisplay:10.37,2013-05-20 15:44:00,
2013-05-20 11:49:00,72.7,69.2,30.06,South,180,5.8,5.8,89,0.00,CLR,CLR,0.00,WeatherDisplay:10.37,2013-05-20 15:49:00,
2013-05-20 11:54:00,73.0,69.6,30.06,SSW,202,4.6,4.6,89,0.00,CLR,CLR,0.00,WeatherDisplay:10.37,2013-05-20 15:54:00,
2013-05-20 11:59:00,73.4,69.6,30.06,ESE,112,4.6,4.6,88,0.00,CLR,CLR,0.00,WeatherDisplay:10.37,2013-05-20 15:59:00,
2013-05-20 12:05:00,73.8,70.0,30.06,ESE,112,4.6,4.6,88,0.00,CLR,CLR,0.00,WeatherDisplay:10.37,2013-05-20 16:05:00,
2013-05-20 12:10:00,74.1,70.0,30.06,South,180,3.8,3.8,87,0.00,CLR,CLR,0.00,WeatherDisplay:10.37,2013-05-20 16:10:00,
2013-05-20 12:15:00,74.1,69.3,30.06,ESE,112,5.8,5.8,85,0.00,CLR,CLR,0.00,WeatherDisplay:10.37,2013-05-20 16:15:00,
2013-05-20 12:20:00,74.7,69.8,30.06,SSE,158,5.8,5.8,85,0.00,CLR,CLR,0.00,WeatherDisplay:10.37,2013-05-20 16:20:00,
2013-05-20 12:25:00,75.4,70.2,30.03,SSE,158,4.3,4.3,84,0.00,CLR,CLR,0.00,WeatherDisplay:10.37,2013-05-20 16:25:00,
2013-05-20 12:31:00,75.6,69.7,30.03,SSE,158,3.8,3.8,82,0.00,CLR,CLR,0.00,WeatherDisplay:10.37,2013-05-20 16:31:00,
2013-05-20 12:36:00,76.1,70.2,30.03,SSE,158,5.8,5.8,82,0.00,CLR,CLR,0.00,WeatherDisplay:10.37,2013-05-20 16:36:00,
2013-05-20 12:41:00,77.0,70.7,30.03,ENE,68,6.9,6.9,81,0.00,CLR,CLR,0.00,WeatherDisplay:10.37,2013-05-20 16:41:00,
2013-05-20 12:46:00,78.3,71.2,30.03,SSE,158,3.5,3.5,79,0.00,CLR,CLR,0.00,WeatherDisplay:10.37,2013-05-20 16:46:00,
2013-05-20 12:51:00,80.6,72.7,30.03,ESE,112,5.8,5.8,77,0.00,CLR,CLR,0.00,WeatherDisplay:10.37,2013-05-20 16:51:00,
2013-05-20 12:56:00,81.7,72.6,30.03,SSE,158,5.8,5.8,74,0.00,CLR,CLR,0.00,WeatherDisplay:10.37,2013-05-20 16:56:00,
2013-05-20 13:02:00,81.3,71.4,30.03,ESE,112,5.8,5.8,72,0.00,CLR,CLR,0.00,WeatherDisplay:10.37,2013-05-20 17:02:00,
2013-05-20 13:07:00,80.1,71.4,30.03,ESE,112,6.9,6.9,75,0.00,CLR,CLR,0.00,WeatherDisplay:10.37,2013-05-20 17:07:00,
2013-05-20 13:12:00,81.0,71.9,30.03,ESE,112,6.9,6.9,74,0.00,CLR,CLR,0.00,WeatherDisplay:10.37,2013-05-20 17:12:00,
2013-05-20 13:17:00,81.5,72.0,30.03,ESE,112,6.2,6.2,73,0.00,CLR,CLR,0.00,WeatherDisplay:10.37,2013-05-20 17:17:00,
2013-05-20 13:22:00,82.8,72.8,30.03,ENE,68,5.8,5.8,72,0.00,CLR,CLR,0.00,WeatherDisplay:10.37,2013-05-20 17:22:00,
2013-05-20 13:27:00,83.7,73.7,30.03,SSE,158,5.8,5.8,72,0.00,CLR,CLR,0.00,WeatherDisplay:10.37,2013-05-20 17:27:00,
2013-05-20 13:33:00,82.0,72.1,30.03,ESE,112,6.9,6.9,72,0.00,CLR,CLR,0.00,WeatherDisplay:10.37,2013-05-20 17:33:00,
2013-05-20 13:38:00,83.1,72.7,30.03,SSE,158,3.5,5.9,71,0.00,CLR,CLR,0.00,WeatherDisplay:10.37,2013-05-20 17:38:00,
2013-05-20 13:43:00,83.8,72.1,30.03,ESE,112,4.6,4.6,68,0.00,CLR,CLR,0.00,WeatherDisplay:10.37,2013-05-20 17:43:00,
2013-05-20 13:48:00,85.1,72.9,30.03,ESE,112,3.5,3.5,67,0.00,CLR,CLR,0.00,WeatherDisplay:10.37,2013-05-20 17:48:00,
2013-05-20 13:53:00,85.6,72.5,30.03,ESE,112,5.8,5.8,65,0.00,CLR,CLR,0.00,WeatherDisplay:10.37,2013-05-20 17:53:00,
2013-05-20 13:58:00,85.5,72.8,30.03,South,180,5.8,5.8,66,0.00,CLR,CLR,0.00,WeatherDisplay:10.37,2013-05-20 17:58:00,
2013-05-20 14:04:00,86.2,73.5,30.03,ESE,112,9.2,9.2,66,0.00,CLR,CLR,0.00,WeatherDisplay:10.37,2013-05-20 18:04:00,
2013-05-20 14:09:00,84.0,71.4,30.03,SE,135,7.4,7.4,66,0.00,CLR,CLR,0.00,WeatherDisplay:10.37,2013-05-20 18:09:00,
2013-05-20 14:14:00,83.8,71.7,30.03,ESE,112,8.1,8.1,67,0.00,CLR,CLR,0.00,WeatherDisplay:10.37,2013-05-20 18:14:00,
2013-05-20 14:19:00,84.9,72.3,30.03,ENE,68,9.2,9.2,66,0.00,CLR,CLR,0.00,WeatherDisplay:10.37,2013-05-20 18:19:00,
2013-05-20 14:24:00,86.5,72.9,30.00,SSE,158,6.9,6.9,64,0.00,CLR,CLR,0.00,WeatherDisplay:10.37,2013-05-20 18:24:00,
2013-05-20 14:29:00,85.8,71.8,30.00,ESE,112,10.4,10.4,63,0.00,CLR,CLR,0.00,WeatherDisplay:10.37,2013-05-20 18:29:00,
2013-05-20 14:34:00,85.6,70.6,30.00,South,180,11.5,11.5,61,0.00,CLR,CLR,0.00,WeatherDisplay:10.37,2013-05-20 18:34:00,
2013-05-20 14:40:00,84.9,70.4,30.00,SSW,202,7.8,7.8,62,0.00,CLR,CLR,0.00,WeatherDisplay:10.37,2013-05-20 18:40:00,
2013-05-20 14:45:00,85.6,70.6,30.00,WSW,248,6.9,6.9,61,0.00,CLR,CLR,0.00,WeatherDisplay:10.37,2013-05-20 18:45:00,
2013-05-20 14:50:00,85.3,69.8,30.00,ESE,112,6.9,6.9,60,0.00,CLR,CLR,0.00,WeatherDisplay:10.37,2013-05-20 18:50:00,
2013-05-20 14:55:00,87.6,71.5,30.00,SSE,158,4.6,4.6,59,0.00,CLR,CLR,0.00,WeatherDisplay:10.37,2013-05-20 18:55:00,
2013-05-20 15:00:00,87.4,70.3,30.00,SSE,158,8.1,8.1,57,0.00,CLR,CLR,0.00,WeatherDisplay:10.37,2013-05-20 19:00:00,
2013-05-20 15:06:00,88.2,70.5,30.00,SSW,202,5.8,5.8,56,0.00,CLR,CLR,0.00,WeatherDisplay:10.37,2013-05-20 19:06:00,
2013-05-20 15:11:00,85.8,67.8,30.00,SSE,158,9.8,9.8,55,0.00,CLR,CLR,0.00,WeatherDisplay:10.37,2013-05-20 19:11:00,
2013-05-20 15:16:00,86.7,68.1,30.00,SSE,158,9.2,9.2,54,0.00,CLR,CLR,0.00,WeatherDisplay:10.37,2013-05-20 19:16:00,
2013-05-20 15:21:00,86.0,68.5,30.00,SSE,158,12.7,12.7,56,0.00,CLR,CLR,0.00,WeatherDisplay:10.37,2013-05-20 19:21:00,
2013-05-20 15:26:00,86.4,68.8,30.00,SSE,158,10.4,10.4,56,0.00,CLR,CLR,0.00,WeatherDisplay:10.37,2013-05-20 19:26:00,
2013-05-20 15:31:00,86.0,69.0,30.00,SSE,158,5.8,5.8,57,0.00,CLR,CLR,0.00,WeatherDisplay:10.37,2013-05-20 19:31:00,
2013-05-20 15:36:00,87.3,68.6,30.00,ENE,68,5.8,5.8,54,0.00,CLR,CLR,0.00,WeatherDisplay:10.37,2013-05-20 19:36:00,
2013-05-20 15:41:00,88.3,69.0,30.00,ENE,68,8.1,8.1,53,0.00,CLR,CLR,0.00,WeatherDisplay:10.37,2013-05-20 19:41:00,
2013-05-20 15:47:00,88.3,68.5,30.00,South,180,6.4,6.4,52,0.00,CLR,CLR,0.00,WeatherDisplay:10.37,2013-05-20 19:47:00,
2013-05-20 15:52:00,86.5,68.5,30.00,East,90,6.0,6.0,55,0.00,CLR,CLR,0.00,WeatherDisplay:10.37,2013-05-20 19:52:00,
2013-05-20 15:57:00,86.5,66.3,30.00,SSE,158,12.7,12.7,51,0.00,CLR,CLR,0.00,WeatherDisplay:10.37,2013-05-20 19:57:00,
2013-05-20 16:02:00,88.5,67.5,30.00,SSE,158,6.9,6.9,50,0.00,CLR,CLR,0.00,WeatherDisplay:10.37,2013-05-20 20:02:00,
2013-05-20 16:07:00,87.8,65.1,30.00,South,180,5.8,5.8,47,0.00,CLR,CLR,0.00,WeatherDisplay:10.37,2013-05-20 20:07:00,
2013-05-20 16:12:00,86.9,66.0,30.00,ESE,112,5.8,5.8,50,0.00,CLR,CLR,0.00,WeatherDisplay:10.37,2013-05-20 20:12:00,
2013-05-20 16:18:00,87.1,65.6,30.00,SSW,202,9.2,9.2,49,0.00,CLR,CLR,0.00,WeatherDisplay:10.37,2013-05-20 20:18:00,
2013-05-20 16:23:00,87.6,66.1,29.97,SSE,158,8.7,8.7,49,0.00,CLR,CLR,0.00,WeatherDisplay:10.37,2013-05-20 20:23:00,
2013-05-20 16:28:00,87.1,65.6,29.97,SSE,158,10.4,10.4,49,0.00,CLR,CLR,0.00,WeatherDisplay:10.37,2013-05-20 20:28:00,
2013-05-20 16:34:00,87.3,66.4,29.97,ESE,112,11.5,11.5,50,0.00,CLR,CLR,0.00,WeatherDisplay:10.37,2013-05-20 20:34:00,
2013-05-20 16:39:00,87.4,65.9,29.97,SSE,158,9.2,9.2,49,0.00,CLR,CLR,0.00,WeatherDisplay:10.37,2013-05-20 20:39:00,
2013-05-20 16:44:00,87.6,66.7,29.97,SSE,158,8.1,8.1,50,0.00,CLR,CLR,0.00,WeatherDisplay:10.37,2013-05-20 20:44:00,
2013-05-20 16:49:00,87.8,66.3,29.97,SSE,158,8.1,8.1,49,0.00,CLR,CLR,0.00,WeatherDisplay:10.37,2013-05-20 20:49:00,
2013-05-20 16:54:00,87.8,65.7,29.97,SSE,158,7.6,7.6,48,0.00,CLR,CLR,0.00,WeatherDisplay:10.37,2013-05-20 20:54:00,
2013-05-20 17:00:00,87.3,65.2,29.97,SSE,158,9.2,9.2,48,0.00,CLR,CLR,0.00,WeatherDisplay:10.37,2013-05-20 21:00:00,
2013-05-20 17:05:00,87.6,65.5,29.97,East,90,6.9,6.9,48,0.00,CLR,CLR,0.00,WeatherDisplay:10.37,2013-05-20 21:05:00,
2013-05-20 17:10:00,86.5,64.5,29.97,South,180,10.4,10.4,48,0.00,CLR,CLR,0.00,WeatherDisplay:10.37,2013-05-20 21:10:00,
2013-05-20 17:15:00,86.9,65.4,29.97,South,180,7.6,7.6,49,0.00,CLR,CLR,0.00,WeatherDisplay:10.37,2013-05-20 21:15:00,
2013-05-20 17:20:00,86.2,64.8,29.97,SSW,202,12.7,12.7,49,0.00,CLR,CLR,0.00,WeatherDisplay:10.37,2013-05-20 21:20:00,
2013-05-20 17:25:00,84.7,64.6,29.97,SSE,158,8.1,8.1,51,0.00,CLR,CLR,0.00,WeatherDisplay:10.37,2013-05-20 21:25:00,
2013-05-20 17:30:00,86.0,65.8,29.97,ENE,68,10.2,10.2,51,0.00,CLR,CLR,0.00,WeatherDisplay:10.37,2013-05-20 21:30:00,
2013-05-20 17:35:00,85.8,66.2,29.97,SSE,158,10.0,10.0,52,0.00,CLR,CLR,0.00,WeatherDisplay:10.37,2013-05-20 21:35:00,
2013-05-20 17:41:00,86.0,66.3,29.97,SSE,158,13.8,13.8,52,0.00,CLR,CLR,0.00,WeatherDisplay:10.37,2013-05-20 21:41:00,
2013-05-20 17:46:00,85.8,66.2,29.97,SSE,158,10.4,10.4,52,0.00,CLR,CLR,0.00,WeatherDisplay:10.37,2013-05-20 21:46:00,
2013-05-20 17:51:00,85.6,65.4,29.97,ESE,112,5.8,5.8,51,0.00,CLR,CLR,0.00,WeatherDisplay:10.37,2013-05-20 21:51:00,
2013-05-20 17:56:00,86.0,66.3,29.97,SE,135,10.4,10.4,52,0.00,CLR,CLR,0.00,WeatherDisplay:10.37,2013-05-20 21:56:00,
2013-05-20 18:01:00,86.0,65.8,29.97,SSE,158,5.8,5.9,51,0.00,CLR,CLR,0.00,WeatherDisplay:10.37,2013-05-20 22:01:00,
2013-05-20 18:07:00,85.3,65.7,29.97,SSW,202,9.2,9.2,52,0.00,CLR,CLR,0.00,WeatherDisplay:10.37,2013-05-20 22:07:00,
2013-05-20 18:12:00,85.6,65.4,29.97,SSW,202,12.7,12.7,51,0.00,CLR,CLR,0.00,WeatherDisplay:10.37,2013-05-20 22:12:00,
2013-05-20 18:17:00,85.3,64.5,29.97,SSE,158,10.4,10.4,50,0.00,CLR,CLR,0.00,WeatherDisplay:10.37,2013-05-20 22:17:00,
2013-05-20 18:22:00,84.4,64.3,29.94,SSW,202,9.2,9.2,51,0.00,CLR,CLR,0.00,WeatherDisplay:10.37,2013-05-20 22:22:00,
2013-05-20 18:27:00,84.0,64.5,29.94,SSE,158,8.1,8.1,52,0.00,CLR,CLR,0.00,WeatherDisplay:10.37,2013-05-20 22:27:00,
2013-05-20 18:33:00,84.2,64.7,29.94,South,180,9.8,9.8,52,0.00,CLR,CLR,0.00,WeatherDisplay:10.37,2013-05-20 22:33:00,
2013-05-20 18:38:00,84.4,64.8,29.97,SSE,158,6.0,6.0,52,0.00,CLR,CLR,0.00,WeatherDisplay:10.37,2013-05-20 22:38:00,
2013-05-20 18:43:00,84.2,64.1,29.97,South,180,5.8,5.8,51,0.00,CLR,CLR,0.00,WeatherDisplay:10.37,2013-05-20 22:43:00,
2013-05-20 18:48:00,84.0,64.5,29.97,South,180,4.6,4.6,52,0.00,CLR,CLR,0.00,WeatherDisplay:10.37,2013-05-20 22:48:00,
2013-05-20 18:53:00,83.8,64.3,29.97,SSE,158,6.0,6.0,52,0.00,CLR,CLR,0.00,WeatherDisplay:10.37,2013-05-20 22:53:00,
2013-05-20 18:58:00,84.0,64.5,29.97,SSW,202,8.7,8.7,52,0.00,CLR,CLR,0.00,WeatherDisplay:10.37,2013-05-20 22:58:00,
2013-05-20 19:03:00,83.7,64.7,29.97,SSE,158,8.1,8.1,53,0.00,CLR,CLR,0.00,WeatherDisplay:10.37,2013-05-20 23:03:00,
2013-05-20 19:08:00,83.3,64.4,29.97,SSW,202,5.8,5.8,53,0.00,CLR,CLR,0.00,WeatherDisplay:10.37,2013-05-20 23:08:00,
2013-05-20 19:13:00,82.9,64.0,29.97,SSW,202,9.2,9.2,53,0.00,CLR,CLR,0.00,WeatherDisplay:10.37,2013-05-20 23:13:00,
2013-05-20 19:19:00,82.9,64.6,29.97,WNW,292,5.8,5.8,54,0.00,CLR,CLR,0.00,WeatherDisplay:10.37,2013-05-20 23:19:00,
2013-05-20 19:24:00,82.8,64.4,29.97,SW,225,4.6,4.6,54,0.00,CLR,CLR,0.00,WeatherDisplay:10.37,2013-05-20 23:24:00,
2013-05-20 19:29:00,82.6,64.3,29.97,SSW,202,5.8,5.8,54,0.00,CLR,CLR,0.00,WeatherDisplay:10.37,2013-05-20 23:29:00,
2013-05-20 19:34:00,82.6,64.8,29.97,SSW,202,10.0,10.0,55,0.00,CLR,CLR,0.00,WeatherDisplay:10.37,2013-05-20 23:34:00,
2013-05-20 19:39:00,82.8,64.4,29.97,SSW,202,8.1,8.1,54,0.00,CLR,CLR,0.00,WeatherDisplay:10.37,2013-05-20 23:39:00,
2013-05-20 19:45:00,82.8,64.4,29.97,SSW,202,8.1,8.1,54,0.00,CLR,CLR,0.00,WeatherDisplay:10.37,2013-05-20 23:45:00,
2013-05-20 19:50:00,82.6,64.3,29.97,SSW,202,9.7,9.7,54,0.00,CLR,CLR,0.00,WeatherDisplay:10.37,2013-05-20 23:50:00,
2013-05-20 19:55:00,82.4,63.5,29.97,SSW,202,5.9,5.9,53,0.00,CLR,CLR,0.00,WeatherDisplay:10.37,2013-05-20 23:55:00,
2013-05-20 20:00:00,82.2,63.9,29.97,SSW,202,7.6,7.6,54,0.00,CLR,CLR,0.00,WeatherDisplay:10.37,2013-05-21 00:00:00,
2013-05-20 20:05:00,81.7,63.4,29.97,WSW,248,3.6,4.3,54,0.00,CLR,CLR,0.00,WeatherDisplay:10.37,2013-05-21 00:05:00,
2013-05-20 20:11:00,81.5,63.8,30.00,WSW,248,5.9,5.9,55,0.00,CLR,CLR,0.00,WeatherDisplay:10.37,2013-05-21 00:11:00,
2013-05-20 20:16:00,80.8,63.6,30.00,SSW,202,8.1,8.1,56,0.00,CLR,CLR,0.00,WeatherDisplay:10.37,2013-05-21 00:16:00,
2013-05-20 20:21:00,80.4,64.3,29.97,WSW,248,5.8,5.8,58,0.00,CLR,CLR,0.00,WeatherDisplay:10.37,2013-05-21 00:21:00,
2013-05-20 20:26:00,79.9,64.8,29.97,South,180,5.8,5.8,60,0.00,CLR,CLR,0.00,WeatherDisplay:10.37,2013-05-21 00:26:00,
2013-05-20 20:31:00,79.5,65.4,29.97,South,180,5.8,5.8,62,0.00,CLR,CLR,0.00,WeatherDisplay:10.37,2013-05-21 00:31:00,
2013-05-20 20:36:00,79.2,65.5,30.00,SSW,202,5.8,5.8,63,0.00,CLR,CLR,0.00,WeatherDisplay:10.37,2013-05-21 00:36:00,
2013-05-20 20:42:00,79.0,65.3,30.00,SSW,202,6.2,6.2,63,0.00,CLR,CLR,0.00,WeatherDisplay:10.37,2013-05-21 00:42:00,
2013-05-20 20:47:00,78.6,65.4,30.00,South,180,5.8,5.8,64,0.00,CLR,CLR,0.00,WeatherDisplay:10.37,2013-05-21 00:47:00,
2013-05-20 20:52:00,78.4,65.7,29.97,SW,225,9.2,9.2,65,0.00,CLR,CLR,0.00,WeatherDisplay:10.37,2013-05-21 00:52:00,
2013-05-20 20:57:00,78.1,65.4,29.97,SSW,202,4.6,4.6,65,0.00,CLR,CLR,0.00,WeatherDisplay:10.37,2013-05-21 00:57:00,
2013-05-20 21:02:00,77.9,65.2,29.97,SSW,202,4.6,4.6,65,0.00,CLR,CLR,0.00,WeatherDisplay:10.37,2013-05-21 01:02:00,
2013-05-20 21:07:00,77.5,65.3,29.97,ESE,112,4.3,4.3,66,0.00,CLR,CLR,0.00,WeatherDisplay:10.37,2013-05-21 01:07:00,
2013-05-20 21:12:00,77.5,65.3,29.97,SSE,158,4.6,4.6,66,0.00,CLR,CLR,0.00,WeatherDisplay:10.37,2013-05-21 01:12:00,
2013-05-20 21:18:00,77.4,65.1,29.97,SSE,158,5.4,5.4,66,0.00,CLR,CLR,0.00,WeatherDisplay:10.37,2013-05-21 01:18:00,
2013-05-20 21:23:00,77.0,65.2,29.97,ESE,112,5.8,5.8,67,0.00,CLR,CLR,0.00,WeatherDisplay:10.37,2013-05-21 01:23:00,
2013-05-20 21:28:00,76.8,65.5,29.97,South,180,4.6,4.6,68,0.00,CLR,CLR,0.00,WeatherDisplay:10.37,2013-05-21 01:28:00,
2013-05-20 21:33:00,76.5,65.5,29.97,SSE,158,5.8,5.8,69,0.00,CLR,CLR,0.00,WeatherDisplay:10.37,2013-05-21 01:33:00,
2013-05-20 21:38:00,76.5,65.5,29.97,SW,225,4.6,4.6,69,0.00,CLR,CLR,0.00,WeatherDisplay:10.37,2013-05-21 01:38:00,
2013-05-20 21:44:00,76.3,65.8,29.97,SSE,158,3.5,3.5,70,0.00,CLR,CLR,0.00,WeatherDisplay:10.37,2013-05-21 01:44:00,
2013-05-20 21:49:00,76.1,65.6,29.97,SSE,158,3.5,3.5,70,0.00,CLR,CLR,0.00,WeatherDisplay:10.37,2013-05-21 01:49:00,
2013-05-20 21:54:00,75.7,65.7,29.97,SSE,158,4.6,4.6,71,0.00,CLR,CLR,0.00,WeatherDisplay:10.37,2013-05-21 01:54:00,
2013-05-20 21:59:00,75.6,65.9,29.97,South,180,5.8,5.8,72,0.00,CLR,CLR,0.00,WeatherDisplay:10.37,2013-05-21 01:59:00,
2013-05-20 22:05:00,75.4,65.7,29.97,ESE,112,3.5,3.5,72,0.00,CLR,CLR,0.00,WeatherDisplay:10.37,2013-05-21 02:05:00,
2013-05-20 22:10:00,75.2,65.9,29.97,South,180,3.5,3.5,73,0.00,CLR,CLR,0.00,WeatherDisplay:10.37,2013-05-21 02:10:00,
2013-05-20 22:15:00,75.2,65.9,29.97,SSW,202,4.9,4.9,73,0.00,CLR,CLR,0.00,WeatherDisplay:10.37,2013-05-21 02:15:00,
2013-05-20 22:20:00,75.0,66.2,29.97,SSE,158,3.5,3.5,74,0.00,CLR,CLR,0.00,WeatherDisplay:10.37,2013-05-21 02:20:00,
2013-05-20 22:25:00,75.0,66.2,29.97,SSE,158,3.6,3.6,74,0.00,CLR,CLR,0.00,WeatherDisplay:10.37,2013-05-21 02:25:00,
2013-05-20 22:31:00,74.8,66.0,29.97,SSW,202,4.3,4.3,74,0.00,CLR,CLR,0.00,WeatherDisplay:10.37,2013-05-21 02:31:00,
2013-05-20 22:36:00,74.8,66.0,29.97,SSE,158,3.5,3.5,74,0.00,CLR,CLR,0.00,WeatherDisplay:10.37,2013-05-21 02:36:00,
2013-05-20 22:41:00,74.7,66.2,29.97,SSW,202,4.6,4.6,75,0.00,CLR,CLR,0.00,WeatherDisplay:10.37,2013-05-21 02:41:00,
2013-05-20 22:46:00,74.7,66.2,29.97,SSE,158,4.6,4.6,75,0.00,CLR,CLR,0.00,WeatherDisplay:10.37,2013-05-21 02:46:00,
2013-05-20 22:51:00,74.5,66.0,29.97,SSE,158,3.6,3.6,75,0.00,CLR,CLR,0.00,WeatherDisplay:10.37,2013-05-21 02:51:00,
2013-05-20 22:57:00,74.3,65.9,29.97,SSE,158,4.6,4.6,75,0.00,CLR,CLR,0.00,WeatherDisplay:10.37,2013-05-21 02:57:00,
2013-05-20 23:02:00,74.3,66.2,29.97,South,180,4.6,4.6,76,0.00,CLR,CLR,0.00,WeatherDisplay:10.37,2013-05-21 03:02:00,
2013-05-20 23:07:00,74.1,66.1,29.97,SSE,158,5.8,5.8,76,0.00,CLR,CLR,0.00,WeatherDisplay:10.37,2013-05-21 03:07:00,
2013-05-20 23:12:00,73.9,65.9,29.97,SSE,158,4.7,4.7,76,0.00,CLR,CLR,0.00,WeatherDisplay:10.37,2013-05-21 03:12:00,
2013-05-20 23:17:00,73.8,66.1,29.97,South,180,4.6,4.6,77,0.00,CLR,CLR,0.00,WeatherDisplay:10.37,2013-05-21 03:17:00,
2013-05-20 23:22:00,73.8,66.1,29.97,SSE,158,5.8,5.8,77,0.00,CLR,CLR,0.00,WeatherDisplay:10.37,2013-05-21 03:22:00,
2013-05-20 23:27:00,73.6,65.9,29.97,SSE,158,4.6,4.6,77,0.00,CLR,CLR,0.00,WeatherDisplay:10.37,2013-05-21 03:27:00,
2013-05-20 23:32:00,73.4,65.7,29.97,SSE,158,2.3,0.0,77,0.00,CLR,CLR,0.00,WeatherDisplay:10.37,2013-05-21 03:32:00,
2013-05-20 23:37:00,73.2,65.9,29.97,ESE,112,4.6,4.6,78,0.00,CLR,CLR,0.00,WeatherDisplay:10.37,2013-05-21 03:37:00,
2013-05-20 23:42:00,72.9,66.0,29.97,ESE,112,3.5,3.5,79,0.00,CLR,CLR,0.00,WeatherDisplay:10.37,2013-05-21 03:42:00,
2013-05-20 23:48:00,72.5,66.0,29.97,SSE,158,3.5,3.5,80,0.00,CLR,CLR,0.00,WeatherDisplay:10.37,2013-05-21 03:48:00,
2013-05-20 23:53:00,72.3,66.2,29.97,SSE,158,3.5,3.5,81,0.00,CLR,CLR,0.00,WeatherDisplay:10.37,2013-05-21 03:53:00,
2013-05-20 23:58:00,72.1,66.3,29.97,ESE,112,2.3,2.3,82,0.00,CLR,CLR,0.00,WeatherDisplay:10.37,2013-05-21 03:58:00,